ABR1KP EBOS-EGFF

Flight info

Callsign ABR1KP
Flight time 0h 52m
Altitude 18000
Route SASKI L179 ICTAM
Aircraft B738/M-SDE2E3FGHIRWXY/LB1

Departure

Time 2026-04-21 18:51
Airport Ostend-Bruges International Airport (EBOS)

Arrival

Time 2026-04-21 19:43
Airport Cardiff International Airport (EGFF)
Time Latitude Longitude Altitude Speed Heading
2026-04-21 18:19 51.20394 2.87335 15 ft 0 kts 346°
2026-04-21 18:38 51.20385 2.87338 15 ft 2 kts 344°
2026-04-21 18:38 51.20370 2.87346 16 ft 2 kts 342°
2026-04-21 18:38 51.20354 2.87356 17 ft 2 kts 336°
2026-04-21 18:39 51.20339 2.87368 17 ft 2 kts 327°
2026-04-21 18:39 51.20326 2.87385 17 ft 2 kts 310°
2026-04-21 18:39 51.20318 2.87407 15 ft 2 kts 280°
2026-04-21 18:39 51.20317 2.87433 15 ft 2 kts 258°
2026-04-21 18:40 51.20319 2.87442 15 ft 0 kts 256°
2026-04-21 18:44 51.20318 2.87438 15 ft 2 kts 256°
2026-04-21 18:44 51.20305 2.87357 15 ft 12 kts 256°
2026-04-21 18:44 51.20289 2.87255 15 ft 9 kts 257°
2026-04-21 18:45 51.20273 2.87161 15 ft 9 kts 240°
2026-04-21 18:45 51.20216 2.87131 15 ft 9 kts 166°
2026-04-21 18:45 51.20155 2.87153 15 ft 9 kts 167°
2026-04-21 18:45 51.20102 2.87107 15 ft 10 kts 243°
2026-04-21 18:46 51.20081 2.86987 17 ft 13 kts 256°
2026-04-21 18:46 51.20059 2.86838 15 ft 14 kts 256°
2026-04-21 18:46 51.20035 2.86683 17 ft 15 kts 256°
2026-04-21 18:46 51.20010 2.86512 16 ft 17 kts 257°
2026-04-21 18:47 51.19981 2.86320 17 ft 19 kts 257°
2026-04-21 18:47 51.19949 2.86110 15 ft 20 kts 256°
2026-04-21 18:47 51.19915 2.85879 15 ft 22 kts 257°
2026-04-21 18:47 51.19878 2.85633 15 ft 24 kts 256°
2026-04-21 18:48 51.19849 2.85441 17 ft 12 kts 256°
2026-04-21 18:48 51.19813 2.85314 15 ft 12 kts 215°
2026-04-21 18:48 51.19752 2.85249 15 ft 8 kts 196°
2026-04-21 18:48 51.19694 2.85266 15 ft 9 kts 165°
2026-04-21 18:49 51.19655 2.85315 15 ft 5 kts 102°
2026-04-21 18:49 51.19665 2.85366 15 ft 6 kts 70°
2026-04-21 18:49 51.19674 2.85409 15 ft 7 kts 72°
2026-04-21 18:49 51.19681 2.85451 16 ft 2 kts 76°
2026-04-21 18:50 51.19683 2.85463 17 ft 1 kts 76°
2026-04-21 18:50 51.19684 2.85470 16 ft 3 kts 76°
2026-04-21 18:50 51.19758 2.85956 16 ft 90 kts 77°
2026-04-21 18:50 51.19960 2.87339 78 ft 160 kts 73°
2026-04-21 18:51 51.20260 2.89104 1064 ft 169 kts 72°
2026-04-21 18:51 51.20539 2.90953 2142 ft 173 kts 76°
2026-04-21 18:51 51.20828 2.92966 2549 ft 201 kts 76°
2026-04-21 18:51 51.21230 2.95217 3059 ft 214 kts 63°
2026-04-21 18:52 51.22326 2.96882 3725 ft 225 kts 31°
2026-04-21 18:52 51.23869 2.97465 4372 ft 237 kts
2026-04-21 18:52 51.25492 2.96769 5034 ft 249 kts 334°
2026-04-21 18:52 51.26878 2.95066 5702 ft 255 kts 320°
2026-04-21 18:53 51.28151 2.93060 6401 ft 257 kts 317°
2026-04-21 18:53 51.29408 2.90992 7018 ft 261 kts 317°
2026-04-21 18:53 51.30671 2.88913 7608 ft 264 kts 317°
2026-04-21 18:53 51.31971 2.86785 8230 ft 266 kts 318°
2026-04-21 18:54 51.33258 2.84694 8801 ft 270 kts 318°
2026-04-21 18:54 51.34578 2.82561 9385 ft 273 kts 318°
2026-04-21 18:54 51.35024 2.81842 9584 ft 274 kts 319°
2026-04-21 18:56 51.35134 2.81665 9633 ft 274 kts 318°
2026-04-21 18:56 51.36496 2.79474 10247 ft 276 kts 319°
2026-04-21 18:56 51.37863 2.77278 10771 ft 280 kts 319°
2026-04-21 18:56 51.39233 2.75078 11335 ft 281 kts 319°
2026-04-21 18:57 51.40499 2.73046 11835 ft 283 kts 319°
2026-04-21 18:57 51.41832 2.70905 12348 ft 285 kts 319°
2026-04-21 18:57 51.43236 2.68651 12895 ft 287 kts 319°
2026-04-21 18:57 51.44662 2.66358 13409 ft 290 kts 319°
2026-04-21 18:58 51.46087 2.64066 13944 ft 292 kts 319°
2026-04-21 18:58 51.47523 2.61752 14447 ft 294 kts 319°
2026-04-21 18:58 51.48966 2.59428 14917 ft 295 kts 318°
2026-04-21 18:58 51.50420 2.57084 15405 ft 296 kts 319°
2026-04-21 18:59 51.51879 2.54728 15882 ft 297 kts 319°
2026-04-21 18:59 51.53325 2.52380 16333 ft 299 kts 317°
2026-04-21 18:59 51.54492 2.49595 16779 ft 308 kts 296°
2026-04-21 18:59 51.55073 2.46449 17100 ft 321 kts 281°
2026-04-21 19:00 51.55312 2.42770 17247 ft 343 kts 276°
2026-04-21 19:00 51.55478 2.38814 17418 ft 364 kts 275°
2026-04-21 19:00 51.55640 2.34648 17572 ft 385 kts 275°
2026-04-21 19:00 51.55824 2.30279 17999 ft 395 kts 276°
2026-04-21 19:01 51.56024 2.25827 18318 ft 406 kts 276°
2026-04-21 19:01 51.56242 2.21235 18313 ft 420 kts 276°
2026-04-21 19:01 51.56471 2.16525 18295 ft 420 kts 276°
2026-04-21 19:01 51.56692 2.11948 18289 ft 417 kts 276°
2026-04-21 19:02 51.56918 2.07214 18300 ft 416 kts 276°
2026-04-21 19:02 51.57142 2.02537 18313 ft 420 kts 276°
2026-04-21 19:02 51.57371 1.97830 18307 ft 423 kts 276°
2026-04-21 19:02 51.57600 1.93104 18304 ft 426 kts 276°
2026-04-21 19:03 51.57827 1.88353 18300 ft 425 kts 276°
2026-04-21 19:03 51.58027 1.84142 18306 ft 424 kts 276°
2026-04-21 19:03 51.58244 1.79497 18308 ft 423 kts 276°
2026-04-21 19:03 51.58465 1.74764 18304 ft 421 kts 276°
2026-04-21 19:04 51.58686 1.70107 18302 ft 420 kts 276°
2026-04-21 19:04 51.58907 1.65396 18308 ft 420 kts 276°
2026-04-21 19:04 51.59121 1.60747 18300 ft 418 kts 275°
2026-04-21 19:04 51.59328 1.56078 18304 ft 416 kts 276°
2026-04-21 19:05 51.59527 1.51423 18314 ft 417 kts 276°
2026-04-21 19:05 51.59723 1.46773 18312 ft 419 kts 276°
2026-04-21 19:05 51.59919 1.42103 18310 ft 418 kts 275°
2026-04-21 19:05 51.60115 1.37442 18310 ft 419 kts 276°
2026-04-21 19:06 51.60309 1.32770 18310 ft 418 kts 275°
2026-04-21 19:06 51.60502 1.28102 18315 ft 419 kts 276°
2026-04-21 19:06 51.60686 1.23497 18319 ft 418 kts 275°
2026-04-21 19:06 51.60857 1.19095 18317 ft 418 kts 275°
2026-04-21 19:07 51.61039 1.14377 18315 ft 419 kts 275°
2026-04-21 19:07 51.61217 1.09699 18399 ft 422 kts 275°
2026-04-21 19:07 51.61399 1.04927 18776 ft 430 kts 275°
2026-04-21 19:07 51.61577 1.00174 19382 ft 430 kts 275°
2026-04-21 19:08 51.61756 0.95328 19901 ft 433 kts 276°
2026-04-21 19:08 51.61934 0.90489 20530 ft 431 kts 276°
2026-04-21 19:08 51.62125 0.85815 21839 ft 412 kts 276°
2026-04-21 19:08 51.62318 0.81284 23146 ft 398 kts 276°
2026-04-21 19:09 51.62510 0.76827 23752 ft 401 kts 276°
2026-04-21 19:09 51.62689 0.72305 24072 ft 408 kts 276°
2026-04-21 19:09 51.62803 0.68618 24398 ft 411 kts 275°
2026-04-21 19:09 51.62929 0.64020 24970 ft 409 kts 276°
2026-04-21 19:10 51.63076 0.59544 25503 ft 408 kts 277°
2026-04-21 19:10 51.63206 0.55602 25720 ft 414 kts 275°
2026-04-21 19:10 51.63118 0.52052 26007 ft 419 kts 270°
2026-04-21 19:10 51.62886 0.47798 26318 ft 417 kts 269°
2026-04-21 19:11 51.62603 0.43154 26310 ft 417 kts 269°
2026-04-21 19:11 51.62315 0.38524 26320 ft 415 kts 269°
2026-04-21 19:11 51.62035 0.33928 26319 ft 414 kts 269°
2026-04-21 19:11 51.61854 0.30887 26324 ft 414 kts 269°
2026-04-21 19:12 51.61584 0.26264 26325 ft 414 kts 270°
2026-04-21 19:12 51.61320 0.21670 26323 ft 414 kts 270°
2026-04-21 19:12 51.61065 0.17208 26316 ft 413 kts 270°
2026-04-21 19:12 51.60795 0.12492 26316 ft 413 kts 270°
2026-04-21 19:13 51.60533 0.07937 26321 ft 412 kts 270°
2026-04-21 19:13 51.60266 0.03313 26319 ft 411 kts 270°
2026-04-21 19:13 51.59999 -0.01268 26322 ft 411 kts 270°
2026-04-21 19:13 51.59768 -0.05198 26321 ft 410 kts 270°
2026-04-21 19:14 51.59497 -0.09803 26319 ft 410 kts 270°
2026-04-21 19:14 51.59227 -0.14335 26375 ft 409 kts 270°
2026-04-21 19:14 51.58954 -0.18899 26391 ft 409 kts 270°
2026-04-21 19:14 51.58684 -0.23399 26391 ft 409 kts 270°
2026-04-21 19:15 51.58411 -0.27906 26292 ft 409 kts 270°
2026-04-21 19:15 51.58132 -0.32481 26293 ft 409 kts 270°
2026-04-21 19:15 51.57852 -0.37038 26292 ft 409 kts 270°
2026-04-21 19:15 51.57570 -0.41601 26290 ft 409 kts 269°
2026-04-21 19:16 51.57287 -0.46151 26294 ft 409 kts 269°
2026-04-21 19:16 51.57006 -0.50649 26290 ft 409 kts 269°
2026-04-21 19:16 51.56760 -0.54556 26290 ft 409 kts 269°
2026-04-21 19:16 51.56474 -0.59066 26293 ft 409 kts 269°
2026-04-21 19:17 51.55895 -0.68134 26294 ft 409 kts 269°
2026-04-21 19:17 51.55602 -0.72669 26296 ft 409 kts 269°
2026-04-21 19:17 51.55306 -0.77243 26298 ft 409 kts 269°
2026-04-21 19:18 51.55008 -0.81808 26297 ft 409 kts 269°
2026-04-21 19:18 51.54710 -0.86352 26293 ft 409 kts 269°
2026-04-21 19:18 51.54408 -0.90912 26298 ft 409 kts 269°
2026-04-21 19:18 51.54105 -0.95477 26290 ft 409 kts 269°
2026-04-21 19:19 51.53808 -0.99924 26287 ft 406 kts 269°
2026-04-21 19:19 51.53509 -1.04339 26277 ft 393 kts 269°
2026-04-21 19:19 51.53214 -1.08705 26282 ft 389 kts 269°
2026-04-21 19:19 51.52922 -1.13019 26292 ft 390 kts 269°
2026-04-21 19:20 51.52780 -1.17310 26259 ft 386 kts 277°
2026-04-21 19:20 51.53169 -1.21587 25802 ft 384 kts 284°
2026-04-21 19:20 51.53700 -1.25740 25449 ft 379 kts 285°
2026-04-21 19:20 51.54243 -1.29907 25085 ft 375 kts 285°
2026-04-21 19:21 51.54765 -1.34006 24730 ft 375 kts 284°
2026-04-21 19:21 51.55266 -1.38113 24375 ft 375 kts 283°
2026-04-21 19:21 51.55462 -1.42287 23944 ft 378 kts 273°
2026-04-21 19:21 51.55227 -1.46515 23505 ft 380 kts 264°
2026-04-21 19:22 51.54660 -1.50666 23107 ft 382 kts 262°
2026-04-21 19:22 51.54054 -1.54851 22704 ft 382 kts 261°
2026-04-21 19:22 51.53452 -1.58984 22314 ft 382 kts 261°
2026-04-21 19:22 51.52846 -1.63169 21940 ft 382 kts 261°
2026-04-21 19:23 51.52252 -1.67293 21565 ft 382 kts 261°
2026-04-21 19:23 51.51655 -1.71462 21190 ft 382 kts 260°
2026-04-21 19:23 51.51058 -1.75632 20808 ft 381 kts 260°
2026-04-21 19:23 51.50469 -1.79748 20436 ft 381 kts 260°
2026-04-21 19:24 51.49871 -1.83926 20066 ft 380 kts 259°
2026-04-21 19:24 51.49279 -1.88045 19698 ft 379 kts 259°
2026-04-21 19:24 51.48686 -1.92167 19324 ft 379 kts 259°
2026-04-21 19:24 51.48100 -1.96229 18965 ft 377 kts 259°
2026-04-21 19:25 51.47507 -2.00318 18584 ft 376 kts 259°
2026-04-21 19:25 51.46910 -2.04439 18163 ft 374 kts 259°
2026-04-21 19:25 51.46325 -2.08457 17761 ft 371 kts 259°
2026-04-21 19:25 51.45740 -2.12464 17371 ft 369 kts 259°
2026-04-21 19:26 51.45161 -2.16426 17022 ft 366 kts 258°
2026-04-21 19:26 51.44582 -2.20376 16651 ft 365 kts 259°
2026-04-21 19:26 51.44082 -2.23780 16344 ft 364 kts 258°
2026-04-21 19:26 51.43541 -2.27455 16007 ft 364 kts 258°
2026-04-21 19:27 51.42959 -2.31399 15643 ft 362 kts 258°
2026-04-21 19:27 51.42382 -2.35297 15286 ft 357 kts 257°
2026-04-21 19:27 51.41817 -2.39110 14940 ft 352 kts 257°
2026-04-21 19:27 51.41256 -2.42879 14584 ft 348 kts 257°
2026-04-21 19:28 51.40700 -2.46633 14266 ft 344 kts 258°
2026-04-21 19:28 51.40256 -2.50384 13919 ft 340 kts 261°
2026-04-21 19:28 51.39897 -2.54091 13552 ft 336 kts 262°
2026-04-21 19:28 51.39548 -2.57804 13207 ft 333 kts 261°
2026-04-21 19:29 51.39198 -2.61415 12871 ft 322 kts 261°
2026-04-21 19:29 51.38849 -2.64887 12551 ft 312 kts 261°
2026-04-21 19:29 51.38507 -2.68228 12251 ft 304 kts 261°
2026-04-21 19:29 51.38166 -2.71617 11964 ft 305 kts 263°
2026-04-21 19:30 51.38062 -2.74999 11664 ft 304 kts 271°
2026-04-21 19:30 51.38137 -2.78329 11374 ft 302 kts 273°
2026-04-21 19:30 51.38245 -2.81601 11083 ft 300 kts 273°
2026-04-21 19:30 51.38354 -2.84937 10786 ft 299 kts 273°
2026-04-21 19:31 51.38450 -2.88247 10496 ft 298 kts 272°
2026-04-21 19:31 51.38533 -2.91482 10197 ft 297 kts 272°
2026-04-21 19:31 51.38610 -2.94776 9887 ft 296 kts 272°
2026-04-21 19:31 51.38682 -2.98110 9570 ft 294 kts 272°
2026-04-21 19:32 51.38749 -3.01330 9273 ft 293 kts 271°
2026-04-21 19:32 51.38813 -3.04587 8960 ft 291 kts 271°
2026-04-21 19:32 51.38876 -3.07823 8674 ft 290 kts 271°
2026-04-21 19:32 51.38936 -3.10994 8371 ft 282 kts 271°
2026-04-21 19:33 51.38975 -3.13097 8183 ft 277 kts 271°
2026-04-21 19:33 51.39048 -3.17096 7826 ft 268 kts 271°
2026-04-21 19:33 51.39102 -3.20068 7569 ft 265 kts 270°
2026-04-21 19:33 51.39154 -3.22998 7330 ft 266 kts 270°
2026-04-21 19:34 51.39206 -3.25969 7088 ft 271 kts 270°
2026-04-21 19:34 51.39258 -3.29027 6813 ft 274 kts 270°
2026-04-21 19:34 51.39309 -3.32061 6556 ft 271 kts 270°
2026-04-21 19:34 51.39389 -3.35078 6060 ft 272 kts 274°
2026-04-21 19:35 51.39582 -3.38049 5755 ft 264 kts 276°
2026-04-21 19:35 51.39982 -3.43783 5192 ft 252 kts 276°
2026-04-21 19:35 51.40163 -3.46518 4930 ft 244 kts 276°
2026-04-21 19:36 51.40337 -3.49185 4686 ft 236 kts 276°
2026-04-21 19:36 51.40504 -3.51760 4445 ft 229 kts 276°
2026-04-21 19:36 51.40664 -3.54258 4228 ft 223 kts 276°
2026-04-21 19:36 51.40821 -3.56710 4024 ft 219 kts 276°
2026-04-21 19:37 51.41280 -3.59014 3796 ft 215 kts 310°
2026-04-21 19:37 51.42364 -3.60470 3627 ft 195 kts 347°
2026-04-21 19:37 51.43598 -3.60794 3429 ft 169 kts 16°
2026-04-21 19:37 51.44646 -3.60325 3254 ft 146 kts 39°
2026-04-21 19:38 51.45404 -3.59385 3131 ft 135 kts 57°
2026-04-21 19:38 51.45901 -3.58112 3006 ft 135 kts 74°
2026-04-21 19:38 51.46054 -3.57143 2908 ft 134 kts 89°
2026-04-21 19:38 51.45834 -3.55200 2724 ft 132 kts 102°
2026-04-21 19:39 51.45564 -3.53809 2574 ft 132 kts 107°
2026-04-21 19:39 51.45254 -3.52440 2484 ft 128 kts 107°
2026-04-21 19:39 51.44913 -3.51092 2393 ft 133 kts 110°
2026-04-21 19:39 51.44524 -3.49775 2208 ft 125 kts 111°
2026-04-21 19:40 51.44153 -3.48580 2058 ft 120 kts 111°
2026-04-21 19:40 51.43772 -3.47362 1902 ft 122 kts 111°
2026-04-21 19:40 51.43384 -3.46135 1729 ft 124 kts 111°
2026-04-21 19:40 51.43004 -3.44936 1556 ft 114 kts 110°
2026-04-21 19:41 51.42654 -3.43824 1396 ft 112 kts 110°
2026-04-21 19:41 51.42297 -3.42691 1248 ft 115 kts 111°
2026-04-21 19:41 51.41936 -3.41550 1072 ft 115 kts 111°
2026-04-21 19:41 51.41575 -3.40402 930 ft 119 kts 111°
2026-04-21 19:42 51.41184 -3.39166 751 ft 126 kts 112°
2026-04-21 19:42 51.40794 -3.37928 589 ft 124 kts 112°
2026-04-21 19:42 51.40424 -3.36727 407 ft 122 kts 112°
2026-04-21 19:42 51.40044 -3.35558 238 ft 113 kts 111°
2026-04-21 19:43 51.39731 -3.34571 223 ft 83 kts 116°
2026-04-21 19:43 51.39544 -3.33963 223 ft 52 kts 117°
2026-04-21 19:43 51.39420 -3.33576 225 ft 26 kts 117°
2026-04-21 19:43 51.39339 -3.33319 227 ft 25 kts 117°
2026-04-21 19:44 51.39309 -3.33226 227 ft 9 kts 117°
2026-04-21 19:44 51.39290 -3.33145 226 ft 0 kts 85°
2026-04-21 19:44 51.39301 -3.33114 226 ft 9 kts 46°
2026-04-21 19:44 51.39352 -3.33068 227 ft 8 kts 28°
2026-04-21 19:45 51.39406 -3.33042 228 ft 8 kts 351°
2026-04-21 19:45 51.39452 -3.33099 228 ft 10 kts 307°
2026-04-21 19:45 51.39488 -3.33197 228 ft 10 kts 298°
2026-04-21 19:45 51.39523 -3.33310 228 ft 13 kts 296°
2026-04-21 19:46 51.39564 -3.33439 228 ft 13 kts 296°
2026-04-21 19:46 51.39605 -3.33569 228 ft 13 kts 297°
2026-04-21 19:46 51.39645 -3.33695 228 ft 12 kts 297°
2026-04-21 19:46 51.39683 -3.33817 229 ft 12 kts 297°
2026-04-21 19:47 51.39720 -3.33935 228 ft 12 kts 296°
2026-04-21 19:47 51.39763 -3.34070 228 ft 14 kts 297°
2026-04-21 19:47 51.39808 -3.34214 230 ft 15 kts 296°
2026-04-21 19:47 51.39846 -3.34283 228 ft 7 kts 351°
2026-04-21 19:48 51.39891 -3.34263 229 ft 7 kts 25°
2026-04-21 19:48 51.39917 -3.34242 228 ft 3 kts 26°
2026-04-21 19:48 51.39937 -3.34250 228 ft 3 kts 316°
2026-04-21 19:48 51.39950 -3.34285 228 ft 0 kts 297°
2026-04-21 19:49 51.39951 -3.34288 228 ft 1 kts 297°
2026-04-21 19:49 51.39954 -3.34298 228 ft 0 kts 297°